Torna al catalogo

SL-8 DEB

AttivoLEO
NORAD 21169·DEBRIS·🇷🇺 Russia

Lanciato Feb 12, 1991 da Plesetsk Cosmodrome

Loading…

Prossimi Passaggi (prossime 24 ore)

TLE

AggiornatoSource: Space-Track

Epoca: Sep 14, 2026, 13:37 UTC

1 21169U 91009AG  26257.56802762  .00000008  00000-0  19618-3 0  9992
2 21169  73.9961 302.5822 0131013 111.2454  42.1701 12.22908837586056

Traccia SL-8 DEB in tempo reale con AllMySat

Download on the App Store